| time (UTC) | temp C | wind direction | speed KPH | gust KPH | rain 1hr cm | rain 24hr cm | rain mn cm | humidity % | barometer mb |
| 20260508135458 | 11 | 269 | 6.4 | 9.7 | 0.00 | 0.00 | 0.00 | 65 | 1011.0 |
| 20260508134954 | 11 | 272 | 6.4 | 9.7 | 0.00 | 0.00 | 0.00 | 64 | 1010.9 |
| 20260508134451 | 11 | 265 | 8.0 | 9.7 | 0.00 | 0.00 | 0.00 | 65 | 1010.8 |
| 20260508133948 | 11 | 263 | 4.8 | 4.8 | 0.00 | 0.00 | 0.00 | 66 | 1010.9 |
| 20260508133445 | 11 | 254 | 6.4 | 9.7 | 0.00 | 0.00 | 0.00 | 65 | 1011.0 |
| 20260508132942 | 11 | 260 | 6.4 | 9.7 | 0.00 | 0.00 | 0.00 | 68 | 1010.9 |
| 20260508132440 | 11 | 274 | 11.3 | 14.5 | 0.00 | 0.00 | 0.00 | 67 | 1010.9 |
| 20260508131936 | 11 | 252 | 6.4 | 8.0 | 0.00 | 0.00 | 0.00 | 69 | 1010.7 |
| 20260508131432 | 10 | 250 | 6.4 | 9.7 | 0.00 | 0.00 | 0.00 | 68 | 1010.3 |
| 20260508130929 | 10 | 234 | 4.8 | 8.0 | 0.00 | 0.00 | 0.00 | 69 | 1010.8 |
| 20260508130426 | 10 | 280 | 0.0 | 1.6 | 0.00 | 0.00 | 0.00 | 69 | 1010.8 |
| 20260508125921 | 10 | 188 | 8.0 | 11.3 | 0.00 | 0.00 | 0.00 | 68 | 1011.0 |
| 20260508125418 | 10 | 275 | 8.0 | 9.7 | 0.00 | 0.00 | 0.00 | 69 | 1010.7 |
| 20260508124916 | 10 | 203 | 6.4 | 11.3 | 0.00 | 0.00 | 0.00 | 70 | 1010.6 |
| 20260508124413 | 10 | 265 | 3.2 | 4.8 | 0.00 | 0.00 | 0.00 | 71 | 1010.7 |
| 20260508123911 | 9 | 236 | 4.8 | 4.8 | 0.00 | 0.00 | 0.00 | 71 | 1010.7 |
| 20260508123409 | 9 | 273 | 4.8 | 4.8 | 0.00 | 0.00 | 0.00 | 71 | 1010.8 |
| 20260508122905 | 9 | 262 | 6.4 | 8.0 | 0.00 | 0.00 | 0.00 | 72 | 1010.6 |
| 20260508122403 | 8 | 259 | 3.2 | 4.8 | 0.00 | 0.00 | 0.00 | 73 | 1010.7 |
| 20260508121859 | 8 | 290 | 3.2 | 8.0 | 0.00 | 0.00 | 0.00 | 73 | 1011.0 |
| 20260508121358 | 8 | 219 | 1.6 | 3.2 | 0.00 | 0.00 | 0.00 | 73 | 1010.7 |
| 20260508120855 | 8 | 269 | 1.6 | 3.2 | 0.00 | 0.00 | 0.00 | 74 | 1010.8 |
| 20260508120353 | 8 | 267 | 4.8 | 4.8 | 0.00 | 0.00 | 0.00 | 74 | 1010.7 |
| 20260508115850 | 8 | 271 | 3.2 | 3.2 | 0.00 | 0.00 | 0.00 | 74 | 1010.7 |
| 20260508115347 | 8 | 233 | 3.2 | 3.2 | 0.00 | 0.00 | 0.00 | 74 | 1010.7 |
| 20260508114844 | 7 | 226 | 4.8 | 4.8 | 0.00 | 0.00 | 0.00 | 74 | 1010.3 |
| 20260508114341 | 7 | 240 | 1.6 | 3.2 | 0.00 | 0.00 | 0.00 | 76 | 1010.6 |
| 20260508113838 | 7 | 240 | 0.0 | 0.0 | 0.00 | 0.00 | 0.00 | 77 | 1010.7 |
| 20260508113336 | 7 | 237 | 1.6 | 3.2 | 0.00 | 0.00 | 0.00 | 78 | 1010.4 |
| 20260508112832 | 6 | 243 | 1.6 | 3.2 | 0.00 | 0.00 | 0.00 | 79 | 1010.7 |
| 20260508112329 | 6 | 253 | 0.0 | 0.0 | 0.00 | 0.00 | 0.00 | 79 | 1010.4 |
| 20260508111826 | 6 | 256 | 1.6 | 1.6 | 0.00 | 0.00 | 0.00 | 78 | 1010.6 |
| 20260508111323 | 6 | 252 | 1.6 | 1.6 | 0.00 | 0.00 | 0.00 | 78 | 1010.1 |
| 20260508110820 | 6 | 273 | 3.2 | 3.2 | 0.00 | 0.00 | 0.00 | 79 | 1010.3 |
| 20260508110318 | 6 | 259 | 1.6 | 1.6 | 0.00 | 0.00 | 0.00 | 79 | 1010.3 |
| 20260508105817 | 6 | 248 | 1.6 | 1.6 | 0.00 | 0.00 | 0.00 | 79 | 1010.3 |
| 20260508105314 | 6 | 249 | 0.0 | 0.0 | 0.00 | 0.00 | 0.00 | 79 | 1010.2 |
| 20260508104811 | 6 | 269 | 1.6 | 1.6 | 0.00 | 0.00 | 0.00 | 79 | 1010.1 |
| 20260508104308 | 6 | 235 | 0.0 | 1.6 | 0.00 | 0.00 | 0.00 | 79 | 1010.2 |
| 20260508103805 | 6 | 267 | 1.6 | 1.6 | 0.00 | 0.00 | 0.00 | 79 | 1010.0 |
| 20260508103302 | 6 | 262 | 1.6 | 3.2 | 0.00 | 0.00 | 0.00 | 80 | 1009.9 |
| 20260508102800 | 6 | 254 | 0.0 | 1.6 | 0.00 | 0.00 | 0.00 | 80 | 1010.0 |
| 20260508102257 | 6 | 225 | 1.6 | 3.2 | 0.00 | 0.00 | 0.00 | 80 | 1009.9 |
| 20260508101754 | 6 | 256 | 1.6 | 1.6 | 0.00 | 0.00 | 0.00 | 80 | 1009.8 |
| 20260508101252 | 6 | 256 | 1.6 | 1.6 | 0.00 | 0.00 | 0.00 | 79 | 1009.9 |
| 20260508100749 | 6 | 78 | 0.0 | 1.6 | 0.00 | 0.00 | 0.00 | 80 | 1009.8 |
| 20260508100247 | 6 | 257 | 0.0 | 1.6 | 0.00 | 0.00 | 0.00 | 82 | 1009.8 |
| 20260508095743 | 6 | 237 | 0.0 | 0.0 | 0.00 | 0.00 | 0.00 | 82 | 1010.0 |
| 20260508095241 | 6 | 245 | 0.0 | 0.0 | 0.00 | 0.00 | 0.00 | 80 | 1009.9 |
| 20260508094738 | 6 | 252 | 0.0 | 0.0 | 0.00 | 0.00 | 0.00 | 79 | 1009.8 |
| 20260508094235 | 6 | 253 | 1.6 | 1.6 | 0.00 | 0.00 | 0.00 | 79 | 1010.0 |
| 20260508093732 | 6 | 252 | 0.0 | 1.6 | 0.00 | 0.00 | 0.00 | 80 | 1010.0 |
| 20260508093229 | 6 | 244 | 0.0 | 1.6 | 0.00 | 0.00 | 0.00 | 78 | 1009.9 |
| 20260508092726 | 6 | 252 | 0.0 | 0.0 | 0.00 | 0.00 | 0.00 | 78 | 1009.9 |
| 20260508092224 | 6 | 249 | 0.0 | 1.6 | 0.00 | 0.00 | 0.00 | 79 | 1010.1 |
| 20260508091722 | 6 | 251 | 0.0 | 1.6 | 0.00 | 0.00 | 0.00 | 79 | 1009.9 |
| 20260508091218 | 6 | 246 | 0.0 | 0.0 | 0.00 | 0.00 | 0.00 | 79 | 1009.9 |
| 20260508090717 | 6 | 255 | 0.0 | 1.6 | 0.00 | 0.00 | 0.00 | 79 | 1010.1 |
| 20260508090214 | 6 | 252 | 0.0 | 1.6 | 0.00 | 0.00 | 0.00 | 79 | 1010.2 |
| 20260508085710 | 6 | 251 | 0.0 | 0.0 | 0.00 | 0.00 | 0.00 | 80 | 1010.0 |
| 20260508085207 | 6 | 238 | 0.0 | 0.0 | 0.00 | 0.00 | 0.00 | 79 | 1010.0 |
| 20260508084703 | 6 | 238 | 0.0 | 0.0 | 0.00 | 0.00 | 0.00 | 79 | 1010.1 |
| 20260508084201 | 6 | 235 | 1.6 | 1.6 | 0.00 | 0.00 | 0.00 | 80 | 1009.9 |
| 20260508083658 | 6 | 250 | 0.0 | 0.0 | 0.00 | 0.00 | 0.00 | 80 | 1010.1 |
| 20260508083155 | 6 | 251 | 0.0 | 0.0 | 0.00 | 0.00 | 0.00 | 80 | 1010.0 |
| 20260508082650 | 6 | 250 | 0.0 | 0.0 | 0.00 | 0.00 | 0.00 | 81 | 1009.9 |
| 20260508082148 | 6 | 249 | 0.0 | 0.0 | 0.00 | 0.00 | 0.00 | 80 | 1010.1 |
| 20260508081645 | 6 | 250 | 0.0 | 0.0 | 0.00 | 0.00 | 0.00 | 82 | 1009.9 |
| 20260508081141 | 6 | 250 | 0.0 | 0.0 | 0.00 | 0.00 | 0.00 | 83 | 1009.9 |
| 20260508080639 | 6 | 238 | 0.0 | 0.0 | 0.00 | 0.00 | 0.00 | 84 | 1010.2 |
| 20260508080137 | 6 | 243 | 0.0 | 0.0 | 0.00 | 0.00 | 0.00 | 83 | 1010.0 |
| 20260508075633 | 6 | 241 | 1.6 | 1.6 | 0.00 | 0.00 | 0.00 | 82 | 1009.9 |
| 20260508075130 | 7 | 234 | 0.0 | 0.0 | 0.00 | 0.00 | 0.00 | 82 | 1010.1 |
| 20260508074628 | 7 | 235 | 0.0 | 0.0 | 0.00 | 0.00 | 0.00 | 80 | 1010.0 |
| 20260508074125 | 7 | 238 | 0.0 | 0.0 | 0.00 | 0.00 | 0.00 | 80 | 1010.0 |
| 20260508073622 | 7 | 233 | 0.0 | 0.0 | 0.00 | 0.00 | 0.00 | 79 | 1009.9 |
| 20260508073120 | 7 | 229 | 0.0 | 1.6 | 0.00 | 0.00 | 0.00 | 80 | 1010.2 |
| 20260508072615 | 7 | 236 | 0.0 | 0.0 | 0.00 | 0.00 | 0.00 | 78 | 1010.2 |
| 20260508072112 | 7 | 236 | 0.0 | 1.6 | 0.00 | 0.00 | 0.00 | 78 | 1010.2 |
| 20260508071610 | 8 | 240 | 0.0 | 0.0 | 0.00 | 0.00 | 0.00 | 80 | 1010.6 |
| 20260508071108 | 8 | 239 | 0.0 | 0.0 | 0.00 | 0.00 | 0.00 | 77 | 1010.4 |
| 20260508070605 | 8 | 241 | 0.0 | 0.0 | 0.00 | 0.00 | 0.00 | 76 | 1010.7 |
| 20260508070104 | 8 | 241 | 0.0 | 0.0 | 0.00 | 0.00 | 0.00 | 75 | 1010.3 |
| 20260508065601 | 8 | 252 | 1.6 | 1.6 | 0.00 | 0.00 | 0.00 | 72 | 1010.4 |
| 20260508065058 | 8 | 246 | 0.0 | 0.0 | 0.00 | 0.00 | 0.00 | 71 | 1010.8 |
| 20260508064556 | 8 | 253 | 0.0 | 1.6 | 0.00 | 0.00 | 0.00 | 71 | 1010.7 |
| 20260508064054 | 8 | 265 | 1.6 | 1.6 | 0.00 | 0.00 | 0.00 | 71 | 1010.7 |
| 20260508063551 | 9 | 268 | 1.6 | 1.6 | 0.00 | 0.00 | 0.00 | 68 | 1010.8 |
| 20260508063049 | 9 | 271 | 8.0 | 9.7 | 0.00 | 0.00 | 0.00 | 66 | 1011.2 |
| 20260508062546 | 9 | 280 | 6.4 | 8.0 | 0.00 | 0.00 | 0.00 | 67 | 1011.1 |
| 20260508062042 | 8 | 239 | 3.2 | 3.2 | 0.00 | 0.00 | 0.00 | 70 | 1011.2 |
| 20260508061540 | 8 | 262 | 1.6 | 1.6 | 0.00 | 0.00 | 0.00 | 72 | 1011.0 |
| 20260508061037 | 8 | 256 | 1.6 | 1.6 | 0.00 | 0.00 | 0.00 | 72 | 1011.1 |
| 20260508060534 | 8 | 252 | 3.2 | 3.2 | 0.00 | 0.00 | 0.00 | 72 | 1010.9 |
| 20260508060031 | 8 | 261 | 3.2 | 3.2 | 0.00 | 0.00 | 0.00 | 72 | 1010.4 |
| 20260508055526 | 8 | 252 | 3.2 | 4.8 | 0.00 | 0.00 | 0.00 | 72 | 1010.3 |
| 20260508055024 | 8 | 274 | 1.6 | 1.6 | 0.00 | 0.00 | 0.00 | 73 | 1010.3 |
| 20260508054520 | 8 | 257 | 0.0 | 0.0 | 0.00 | 0.00 | 0.00 | 74 | 1010.4 |
| 20260508054018 | 8 | 253 | 0.0 | 0.0 | 0.00 | 0.00 | 0.00 | 73 | 1010.4 |
| 20260508053514 | 8 | 261 | 1.6 | 1.6 | 0.00 | 0.00 | 0.00 | 71 | 1010.8 |
| 20260508053013 | 8 | 254 | 0.0 | 1.6 | 0.00 | 0.00 | 0.00 | 73 | 1010.7 |
| 20260508052510 | 8 | 258 | 1.6 | 1.6 | 0.00 | 0.00 | 0.00 | 74 | 1010.6 |
| 20260508052006 | 7 | 256 | 0.0 | 1.6 | 0.00 | 0.00 | 0.00 | 74 | 1010.4 |
| 20260508051503 | 8 | 243 | 3.2 | 3.2 | 0.00 | 0.00 | 0.00 | 73 | 1010.6 |
| 20260508050957 | 8 | 257 | 1.6 | 1.6 | 0.00 | 0.00 | 0.00 | 70 | 1010.4 |
| 20260508050454 | 8 | 260 | 0.0 | 1.6 | 0.00 | 0.00 | 0.00 | 71 | 1010.6 |
| 20260508045951 | 8 | 229 | 1.6 | 1.6 | 0.00 | 0.00 | 0.00 | 70 | 1010.6 |
| 20260508045448 | 8 | 249 | 0.0 | 0.0 | 0.00 | 0.00 | 0.00 | 70 | 1010.8 |
| 20260508044945 | 7 | 245 | 0.0 | 0.0 | 0.00 | 0.00 | 0.00 | 72 | 1010.8 |
| 20260508044443 | 7 | 237 | 0.0 | 1.6 | 0.00 | 0.00 | 0.00 | 76 | 1010.8 |
| 20260508043938 | 7 | 239 | 0.0 | 0.0 | 0.00 | 0.00 | 0.00 | 76 | 1010.7 |
| 20260508043436 | 7 | 238 | 0.0 | 0.0 | 0.00 | 0.00 | 0.00 | 77 | 1010.7 |
| 20260508042931 | 6 | 229 | 1.6 | 1.6 | 0.00 | 0.00 | 0.00 | 79 | 1010.9 |
| 20260508042430 | 6 | 232 | 0.0 | 1.6 | 0.00 | 0.00 | 0.00 | 79 | 1010.9 |
| 20260508041926 | 6 | 232 | 0.0 | 1.6 | 0.00 | 0.00 | 0.00 | 79 | 1010.8 |
| 20260508041423 | 6 | 235 | 0.0 | 0.0 | 0.00 | 0.00 | 0.00 | 78 | 1010.7 |
| 20260508040920 | 7 | 235 | 0.0 | 0.0 | 0.00 | 0.00 | 0.00 | 79 | 1010.7 |
| 20260508040417 | 7 | 235 | 0.0 | 0.0 | 0.00 | 0.00 | 0.00 | 79 | 1010.9 |
| 20260508035915 | 7 | 235 | 0.0 | 0.0 | 0.00 | 0.00 | 0.00 | 76 | 1010.7 |
| 20260508035411 | 7 | 235 | 0.0 | 0.0 | 0.00 | 0.00 | 0.00 | 78 | 1010.7 |
| 20260508034908 | 6 | 221 | 0.0 | 0.0 | 0.00 | 0.00 | 0.00 | 79 | 1010.6 |
| 20260508034406 | 6 | 226 | 0.0 | 0.0 | 0.00 | 0.00 | 0.00 | 83 | 1010.7 |
| 20260508033902 | 6 | 245 | 0.0 | 0.0 | 0.00 | 0.00 | 0.00 | 80 | 1010.7 |
| 20260508033400 | 6 | 245 | 0.0 | 0.0 | 0.00 | 0.00 | 0.00 | 80 | 1010.9 |
| 20260508032857 | 6 | 239 | 0.0 | 0.0 | 0.00 | 0.00 | 0.00 | 79 | 1010.8 |
| 20260508032355 | 6 | 237 | 0.0 | 0.0 | 0.00 | 0.00 | 0.00 | 80 | 1010.7 |
| 20260508031851 | 5 | 236 | 0.0 | 0.0 | 0.00 | 0.00 | 0.00 | 82 | 1010.4 |
| 20260508031348 | 5 | 238 | 0.0 | 0.0 | 0.00 | 0.00 | 0.00 | 82 | 1010.6 |
| 20260508030844 | 5 | 243 | 0.0 | 0.0 | 0.00 | 0.00 | 0.00 | 82 | 1010.7 |
| 20260508030341 | 6 | 243 | 0.0 | 0.0 | 0.00 | 0.00 | 0.00 | 82 | 1010.6 |
| 20260508025838 | 6 | 238 | 0.0 | 0.0 | 0.00 | 0.00 | 0.00 | 81 | 1010.7 |
| 20260508025335 | 5 | 238 | 0.0 | 0.0 | 0.00 | 0.00 | 0.00 | 82 | 1010.4 |
| 20260508024832 | 5 | 240 | 0.0 | 0.0 | 0.00 | 0.00 | 0.00 | 81 | 1010.7 |
| 20260508024328 | 6 | 240 | 0.0 | 0.0 | 0.00 | 0.00 | 0.00 | 81 | 1010.7 |
| 20260508023826 | 6 | 234 | 0.0 | 0.0 | 0.00 | 0.00 | 0.00 | 80 | 1010.7 |
| 20260508023322 | 5 | 234 | 0.0 | 0.0 | 0.00 | 0.00 | 0.00 | 79 | 1010.7 |
| 20260508022819 | 5 | 228 | 1.6 | 1.6 | 0.00 | 0.00 | 0.00 | 81 | 1010.6 |
| 20260508022315 | 5 | 235 | 0.0 | 0.0 | 0.00 | 0.00 | 0.00 | 78 | 1010.8 |
| 20260508021812 | 6 | 235 | 0.0 | 0.0 | 0.00 | 0.00 | 0.00 | 78 | 1010.7 |
| 20260508021308 | 6 | 235 | 0.0 | 0.0 | 0.00 | 0.00 | 0.00 | 78 | 1010.7 |
| 20260508020804 | 6 | 235 | 0.0 | 0.0 | 0.00 | 0.00 | 0.00 | 81 | 1010.6 |
| 20260508020302 | 6 | 235 | 0.0 | 0.0 | 0.00 | 0.00 | 0.00 | 81 | 1010.8 |
| 20260508015759 | 6 | 235 | 0.0 | 0.0 | 0.00 | 0.00 | 0.00 | 81 | 1010.7 |
| 20260508015256 | 6 | 229 | 0.0 | 1.6 | 0.00 | 0.00 | 0.00 | 81 | 1010.4 |
| 20260508014753 | 6 | 235 | 0.0 | 0.0 | 0.00 | 0.00 | 0.00 | 78 | 1010.6 |
| 20260508014250 | 6 | 235 | 0.0 | 0.0 | 0.00 | 0.00 | 0.00 | 77 | 1010.8 |
| 20260508013745 | 6 | 232 | 0.0 | 0.0 | 0.00 | 0.00 | 0.00 | 77 | 1010.7 |
| 20260508013242 | 6 | 234 | 0.0 | 0.0 | 0.00 | 0.00 | 0.00 | 77 | 1010.7 |
| 20260508012740 | 6 | 231 | 0.0 | 0.0 | 0.00 | 0.00 | 0.00 | 76 | 1010.6 |
| 20260508012236 | 6 | 235 | 0.0 | 0.0 | 0.00 | 0.00 | 0.00 | 75 | 1010.3 |
| 20260508011735 | 6 | 235 | 0.0 | 0.0 | 0.00 | 0.00 | 0.00 | 76 | 1010.3 |
| 20260508011232 | 6 | 235 | 0.0 | 0.0 | 0.00 | 0.00 | 0.00 | 77 | 1010.2 |
| 20260508010728 | 7 | 236 | 0.0 | 0.0 | 0.00 | 0.00 | 0.00 | 76 | 1010.3 |
| 20260508010227 | 7 | 236 | 0.0 | 0.0 | 0.00 | 0.00 | 0.00 | 75 | 1010.2 |
| 20260508005723 | 7 | 235 | 0.0 | 0.0 | 0.00 | 0.00 | 0.00 | 75 | 1010.2 |
| 20260508005220 | 7 | 240 | 0.0 | 0.0 | 0.00 | 0.00 | 0.00 | 74 | 1010.3 |
| 20260508004715 | 8 | 240 | 0.0 | 0.0 | 0.00 | 0.00 | 0.00 | 70 | 1010.2 |
| 20260508004212 | 10 | 241 | 0.0 | 0.0 | 0.00 | 0.00 | 0.00 | 65 | 1010.1 |
| 20260508003709 | 10 | 252 | 0.0 | 0.0 | 0.00 | 0.00 | 0.00 | 59 | 1010.2 |
| 20260508003206 | 10 | 255 | 1.6 | 1.6 | 0.00 | 0.00 | 0.00 | 54 | 1010.1 |
| 20260508002703 | 10 | 250 | 0.0 | 0.0 | 0.00 | 0.00 | 0.00 | 62 | 1010.0 |
| 20260508002201 | 10 | 250 | 0.0 | 0.0 | 0.00 | 0.00 | 0.00 | 62 | 1010.0 |
| 20260508001655 | 10 | 248 | 0.0 | 0.0 | 0.00 | 0.00 | 0.00 | 61 | 1009.9 |
| 20260508001152 | 11 | 249 | 0.0 | 0.0 | 0.00 | 0.00 | 0.00 | 60 | 1009.7 |
| 20260508000648 | 11 | 256 | 0.0 | 1.6 | 0.00 | 0.00 | 0.00 | 53 | 1009.8 |
| 20260508000145 | 11 | 261 | 3.2 | 3.2 | 0.00 | 0.00 | 0.00 | 51 | 1009.9 |
| 20260507235642 | 12 | 263 | 3.2 | 3.2 | 0.00 | 0.00 | 0.00 | 49 | 1010.0 |
| 20260507235139 | 11 | 254 | 3.2 | 4.8 | 0.00 | 0.00 | 0.00 | 49 | 1009.9 |
| 20260507234636 | 12 | 262 | 3.2 | 4.8 | 0.00 | 0.00 | 0.00 | 50 | 1009.8 |
| 20260507234132 | 12 | 282 | 3.2 | 3.2 | 0.00 | 0.00 | 0.00 | 49 | 1009.8 |
| 20260507233629 | 12 | 272 | 3.2 | 3.2 | 0.00 | 0.00 | 0.00 | 51 | 1009.9 |
| 20260507233128 | 12 | 262 | 3.2 | 3.2 | 0.00 | 0.00 | 0.00 | 51 | 1009.8 |
| 20260507232625 | 12 | 270 | 3.2 | 3.2 | 0.00 | 0.00 | 0.00 | 50 | 1009.8 |
| 20260507232121 | 12 | 272 | 4.8 | 4.8 | 0.00 | 0.00 | 0.00 | 48 | 1009.9 |
| 20260507231617 | 12 | 257 | 3.2 | 3.2 | 0.00 | 0.00 | 0.00 | 51 | 1009.6 |
| 20260507231115 | 12 | 265 | 1.6 | 1.6 | 0.00 | 0.00 | 0.00 | 50 | 1009.7 |
| 20260507230611 | 12 | 253 | 1.6 | 3.2 | 0.00 | 0.00 | 0.00 | 51 | 1009.6 |
| 20260507230108 | 12 | 283 | 1.6 | 3.2 | 0.00 | 0.00 | 0.00 | 51 | 1009.8 |
| 20260507225603 | 13 | 299 | 6.4 | 8.0 | 0.00 | 0.00 | 0.00 | 49 | 1009.9 |
| 20260507225100 | 13 | 297 | 3.2 | 3.2 | 0.00 | 0.00 | 0.00 | 50 | 1010.1 |
| 20260507224555 | 13 | 287 | 6.4 | 8.0 | 0.00 | 0.00 | 0.00 | 46 | 1009.8 |
| 20260507224052 | 13 | 299 | 4.8 | 8.0 | 0.00 | 0.00 | 0.00 | 45 | 1009.8 |
| 20260507223548 | 13 | 313 | 6.4 | 9.7 | 0.00 | 0.00 | 0.00 | 47 | 1009.9 |
| 20260507223045 | 13 | 279 | 1.6 | 1.6 | 0.00 | 0.00 | 0.00 | 50 | 1009.9 |
| 20260507222542 | 13 | 297 | 4.8 | 8.0 | 0.00 | 0.00 | 0.00 | 45 | 1010.0 |
| 20260507222039 | 13 | 286 | 4.8 | 4.8 | 0.00 | 0.00 | 0.00 | 48 | 1010.0 |
| 20260507221535 | 13 | 273 | 8.0 | 9.7 | 0.00 | 0.00 | 0.00 | 44 | 1009.9 |
| 20260507221032 | 13 | 305 | 8.0 | 9.7 | 0.00 | 0.00 | 0.00 | 45 | 1010.0 |
| 20260507220529 | 13 | 248 | 11.3 | 14.5 | 0.00 | 0.00 | 0.00 | 45 | 1009.9 |
| 20260507220027 | 13 | 297 | 6.4 | 8.0 | 0.00 | 0.00 | 0.00 | 46 | 1010.0 |
| 20260507215522 | 13 | 284 | 4.8 | 4.8 | 0.00 | 0.00 | 0.00 | 47 | 1009.9 |
| 20260507215021 | 13 | 262 | 6.4 | 8.0 | 0.00 | 0.00 | 0.00 | 47 | 1010.0 |
| 20260507214517 | 13 | 263 | 3.2 | 3.2 | 0.00 | 0.00 | 0.00 | 47 | 1009.8 |
| 20260507214013 | 12 | 311 | 6.4 | 8.0 | 0.00 | 0.00 | 0.00 | 49 | 1009.8 |
| 20260507213510 | 13 | 294 | 8.0 | 8.0 | 0.00 | 0.00 | 0.00 | 45 | 1009.8 |
| 20260507213007 | 13 | 267 | 11.3 | 12.9 | 0.00 | 0.00 | 0.00 | 43 | 1009.7 |
| 20260507212502 | 14 | 254 | 4.8 | 4.8 | 0.00 | 0.00 | 0.00 | 49 | 1009.7 |
| 20260507211959 | 13 | 285 | 3.2 | 3.2 | 0.00 | 0.00 | 0.00 | 49 | 1009.6 |
| 20260507211456 | 13 | 300 | 8.0 | 9.7 | 0.00 | 0.00 | 0.00 | 50 | 1009.7 |
| 20260507210953 | 13 | 276 | 11.3 | 14.5 | 0.00 | 0.00 | 0.00 | 49 | 1009.7 |
| 20260507210450 | 13 | 249 | 11.3 | 12.9 | 0.00 | 0.00 | 0.00 | 48 | 1009.6 |
| 20260507205947 | 13 | 267 | 12.9 | 14.5 | 0.00 | 0.00 | 0.00 | 49 | 1009.5 |
| 20260507205444 | 12 | 284 | 9.7 | 11.3 | 0.00 | 0.00 | 0.00 | 51 | 1009.5 |
| 20260507204940 | 12 | 301 | 6.4 | 8.0 | 0.00 | 0.00 | 0.00 | 49 | 1009.6 |
| 20260507204436 | 13 | 316 | 3.2 | 3.2 | 0.00 | 0.00 | 0.00 | 53 | 1009.5 |
| 20260507203934 | 12 | 321 | 8.0 | 9.7 | 0.00 | 0.00 | 0.00 | 53 | 1009.5 |
| 20260507203431 | 13 | 267 | 6.4 | 12.9 | 0.00 | 0.00 | 0.00 | 52 | 1009.3 |
| 20260507202927 | 13 | 286 | 8.0 | 9.7 | 0.00 | 0.00 | 0.00 | 49 | 1009.6 |
| 20260507202419 | 12 | 279 | 4.8 | 4.8 | 0.00 | 0.00 | 0.00 | 53 | 1009.5 |
| 20260507201914 | 12 | 307 | 8.0 | 9.7 | 0.00 | 0.00 | 0.00 | 52 | 1009.5 |
| 20260507201410 | 13 | 305 | 6.4 | 9.7 | 0.00 | 0.00 | 0.00 | 50 | 1009.5 |
| 20260507200907 | 13 | 292 | 8.0 | 9.7 | 0.00 | 0.00 | 0.00 | 50 | 1009.5 |
| 20260507200402 | 13 | 265 | 4.8 | 4.8 | 0.00 | 0.00 | 0.00 | 55 | 1009.4 |
| 20260507195858 | 13 | 296 | 4.8 | 4.8 | 0.00 | 0.00 | 0.00 | 52 | 1009.5 |
| 20260507195356 | 13 | 276 | 9.7 | 11.3 | 0.00 | 0.00 | 0.00 | 49 | 1009.5 |
| 20260507194853 | 13 | 265 | 8.0 | 11.3 | 0.00 | 0.00 | 0.00 | 47 | 1009.4 |
| 20260507194349 | 13 | 276 | 8.0 | 11.3 | 0.00 | 0.00 | 0.00 | 51 | 1009.7 |
| 20260507193846 | 13 | 279 | 4.8 | 4.8 | 0.00 | 0.00 | 0.00 | 53 | 1009.7 |
| 20260507193343 | 13 | 309 | 6.4 | 8.0 | 0.00 | 0.00 | 0.00 | 54 | 1009.6 |
| 20260507192839 | 13 | 274 | 6.4 | 8.0 | 0.00 | 0.00 | 0.00 | 58 | 1009.6 |
| 20260507192336 | 13 | 319 | 4.8 | 4.8 | 0.00 | 0.00 | 0.00 | 55 | 1009.6 |
| 20260507191832 | 12 | 298 | 6.4 | 11.3 | 0.00 | 0.00 | 0.00 | 57 | 1009.8 |
| 20260507191329 | 12 | 289 | 6.4 | 8.0 | 0.00 | 0.00 | 0.00 | 56 | 1009.5 |
| 20260507190826 | 13 | 308 | 8.0 | 9.7 | 0.00 | 0.00 | 0.00 | 53 | 1009.7 |
| 20260507190324 | 12 | 313 | 11.3 | 14.5 | 0.00 | 0.00 | 0.00 | 54 | 1009.5 |
| 20260507185823 | 12 | 270 | 3.2 | 3.2 | 0.00 | 0.00 | 0.00 | 53 | 1009.8 |
| 20260507185319 | 12 | 279 | 11.3 | 12.9 | 0.00 | 0.00 | 0.00 | 52 | 1009.8 |
| 20260507184816 | 12 | 247 | 3.2 | 3.2 | 0.00 | 0.00 | 0.00 | 54 | 1009.5 |
| 20260507184314 | 12 | 300 | 9.7 | 11.3 | 0.00 | 0.00 | 0.00 | 55 | 1009.7 |
| 20260507183811 | 13 | 269 | 3.2 | 3.2 | 0.00 | 0.00 | 0.00 | 54 | 1009.6 |
| 20260507183308 | 13 | 298 | 3.2 | 3.2 | 0.00 | 0.00 | 0.00 | 59 | 1009.7 |
| 20260507182805 | 13 | 295 | 9.7 | 11.3 | 0.00 | 0.00 | 0.00 | 54 | 1009.8 |
| 20260507182300 | 13 | 287 | 6.4 | 8.0 | 0.00 | 0.00 | 0.00 | 55 | 1009.6 |
| 20260507181757 | 13 | 300 | 4.8 | 4.8 | 0.00 | 0.00 | 0.00 | 59 | 1009.7 |
| 20260507181253 | 12 | 310 | 8.0 | 9.7 | 0.00 | 0.00 | 0.00 | 53 | 1009.7 |
| 20260507180750 | 13 | 306 | 8.0 | 9.7 | 0.00 | 0.00 | 0.00 | 52 | 1009.8 |
| 20260507180247 | 12 | 241 | 8.0 | 11.3 | 0.00 | 0.00 | 0.00 | 49 | 1009.7 |
| 20260507175742 | 13 | 262 | 9.7 | 14.5 | 0.00 | 0.00 | 0.00 | 51 | 1009.6 |
| 20260507175240 | 12 | 288 | 6.4 | 8.0 | 0.00 | 0.00 | 0.00 | 53 | 1009.9 |
| 20260507174737 | 12 | 287 | 6.4 | 8.0 | 0.00 | 0.00 | 0.00 | 55 | 1010.0 |
| 20260507174235 | 12 | 306 | 9.7 | 11.3 | 0.00 | 0.00 | 0.00 | 52 | 1010.0 |
| 20260507173732 | 12 | 278 | 4.8 | 4.8 | 0.00 | 0.00 | 0.00 | 53 | 1010.1 |
| 20260507173229 | 12 | 278 | 11.3 | 12.9 | 0.00 | 0.00 | 0.00 | 52 | 1010.0 |
| 20260507172725 | 12 | 271 | 11.3 | 12.9 | 0.00 | 0.00 | 0.00 | 49 | 1010.1 |
| 20260507172223 | 12 | 275 | 8.0 | 9.7 | 0.00 | 0.00 | 0.00 | 50 | 1010.3 |
| 20260507171722 | 12 | 273 | 6.4 | 8.0 | 0.00 | 0.00 | 0.00 | 56 | 1010.2 |
| 20260507171220 | 12 | 273 | 9.7 | 12.9 | 0.00 | 0.00 | 0.00 | 50 | 1010.1 |
| 20260507170717 | 12 | 285 | 4.8 | 8.0 | 0.00 | 0.00 | 0.00 | 49 | 1010.2 |
| 20260507170214 | 12 | 267 | 9.7 | 14.5 | 0.00 | 0.00 | 0.00 | 51 | 1010.3 |
| 20260507165709 | 12 | 291 | 8.0 | 11.3 | 0.00 | 0.00 | 0.00 | 50 | 1010.2 |
| 20260507165206 | 12 | 239 | 4.8 | 4.8 | 0.00 | 0.00 | 0.00 | 51 | 1010.6 |
| 20260507164702 | 12 | 280 | 6.4 | 9.7 | 0.00 | 0.00 | 0.00 | 49 | 1010.4 |
| 20260507164159 | 12 | 287 | 6.4 | 9.7 | 0.00 | 0.00 | 0.00 | 55 | 1010.4 |
| 20260507163656 | 12 | 310 | 8.0 | 11.3 | 0.00 | 0.00 | 0.00 | 51 | 1010.6 |
| 20260507163154 | 11 | 261 | 4.8 | 4.8 | 0.00 | 0.00 | 0.00 | 51 | 1010.6 |
| 20260507162650 | 11 | 271 | 6.4 | 8.0 | 0.00 | 0.00 | 0.00 | 52 | 1010.6 |
| 20260507162146 | 12 | 261 | 9.7 | 11.3 | 0.00 | 0.00 | 0.00 | 52 | 1010.6 |
| 20260507161642 | 11 | 276 | 8.0 | 9.7 | 0.00 | 0.00 | 0.00 | 53 | 1010.4 |
| 20260507161139 | 12 | 287 | 8.0 | 11.3 | 0.00 | 0.00 | 0.00 | 52 | 1010.4 |
| 20260507160636 | 12 | 298 | 6.4 | 8.0 | 0.00 | 0.00 | 0.00 | 56 | 1010.4 |
| 20260507160132 | 12 | 259 | 6.4 | 9.7 | 0.00 | 0.00 | 0.00 | 52 | 1010.4 |
| 20260507155628 | 11 | 265 | 4.8 | 8.0 | 0.00 | 0.00 | 0.00 | 53 | 1010.1 |
| 20260507155125 | 12 | 247 | 6.4 | 8.0 | 0.00 | 0.00 | 0.00 | 54 | 1010.3 |
| 20260507154621 | 12 | 273 | 4.8 | 4.8 | 0.00 | 0.00 | 0.00 | 57 | 1010.4 |
| 20260507154119 | 12 | 269 | 4.8 | 4.8 | 0.00 | 0.00 | 0.00 | 55 | 1010.1 |
| 20260507153615 | 11 | 266 | 1.6 | 3.2 | 0.00 | 0.00 | 0.00 | 55 | 1010.2 |
| 20260507153112 | 12 | 236 | 9.7 | 11.3 | 0.00 | 0.00 | 0.00 | 56 | 1010.1 |
| 20260507152608 | 11 | 299 | 4.8 | 4.8 | 0.00 | 0.00 | 0.00 | 58 | 1010.1 |
| 20260507152104 | 11 | 279 | 4.8 | 4.8 | 0.00 | 0.00 | 0.00 | 60 | 1010.0 |
| 20260507151600 | 11 | 311 | 4.8 | 4.8 | 0.00 | 0.00 | 0.00 | 64 | 1010.2 |
| 20260507151057 | 11 | 256 | 8.0 | 9.7 | 0.00 | 0.00 | 0.00 | 56 | 1010.2 |
| 20260507150555 | 11 | 271 | 4.8 | 8.0 | 0.00 | 0.00 | 0.00 | 58 | 1010.1 |
| 20260507150051 | 11 | 266 | 4.8 | 4.8 | 0.00 | 0.00 | 0.00 | 56 | 1010.1 |
| 20260507145546 | 11 | 251 | 4.8 | 8.0 | 0.00 | 0.00 | 0.00 | 53 | 1010.6 |
| 20260507145044 | 11 | 270 | 3.2 | 3.2 | 0.00 | 0.00 | 0.00 | 56 | 1010.3 |
| 20260507144540 | 11 | 262 | 4.8 | 4.8 | 0.00 | 0.00 | 0.00 | 66 | 1010.3 |
| 20260507144038 | 10 | 257 | 6.4 | 8.0 | 0.00 | 0.00 | 0.00 | 61 | 1010.3 |
| 20260507143535 | 10 | 276 | 8.0 | 9.7 | 0.00 | 0.00 | 0.00 | 61 | 1010.4 |
| 20260507143033 | 10 | 265 | 3.2 | 3.2 | 0.00 | 0.00 | 0.00 | 65 | 1010.4 |
| 20260507142527 | 10 | 303 | 4.8 | 4.8 | 0.00 | 0.00 | 0.00 | 64 | 1010.6 |
| 20260507142025 | 10 | 263 | 4.8 | 4.8 | 0.00 | 0.00 | 0.00 | 61 | 1010.8 |
| 20260507141521 | 10 | 277 | 3.2 | 3.2 | 0.00 | 0.00 | 0.00 | 63 | 1010.4 |
| 20260507141018 | 10 | 297 | 6.4 | 8.0 | 0.00 | 0.00 | 0.00 | 65 | 1010.6 |
| 20260507140515 | 10 | 301 | 4.8 | 4.8 | 0.00 | 0.00 | 0.00 | 67 | 1010.6 |
| 20260507140012 | 10 | 278 | 3.2 | 3.2 | 0.00 | 0.00 | 0.00 | 64 | 1010.8 |